| time (UTC) | temp F | wind direction | speed MPH | gust MPH | rain 1hr in | rain 24hr in | rain mn in | humidity % | barometer mb |
| 20260507214103 | 62 | 360 | 4.0 | 10.0 | 0.00 | 0.00 | 0.07 | 22 | 1021.3 |
| 20260507213104 | 62 | 31 | 1.0 | 13.0 | 0.00 | 0.00 | 0.07 | 22 | 1021.5 |
| 20260507212102 | 62 | 346 | 5.0 | 6.0 | 0.00 | 0.00 | 0.07 | 20 | 1021.6 |
| 20260507211103 | 62 | 68 | 4.0 | 8.0 | 0.00 | 0.00 | 0.07 | 22 | 1021.7 |
| 20260507210104 | 62 | 294 | 5.0 | 10.0 | 0.00 | 0.00 | 0.07 | 20 | 1021.9 |
| 20260507205104 | 63 | 1 | 2.0 | 8.0 | 0.00 | 0.00 | 0.07 | 22 | 1021.9 |
| 20260507204103 | 62 | 8 | 3.0 | 6.0 | 0.00 | 0.00 | 0.07 | 20 | 1022.1 |
| 20260507203104 | 62 | 336 | 0.0 | 6.0 | 0.00 | 0.00 | 0.07 | 23 | 1022.1 |
| 20260507202104 | 61 | 353 | 6.0 | 9.0 | 0.00 | 0.00 | 0.07 | 21 | 1022.4 |
| 20260507201103 | 61 | 349 | 0.0 | 9.0 | 0.00 | 0.00 | 0.07 | 21 | 1022.4 |
| 20260507200103 | 60 | 65 | 8.0 | 8.0 | 0.00 | 0.00 | 0.07 | 19 | 1022.5 |
| 20260507195104 | 60 | 30 | 2.0 | 9.0 | 0.00 | 0.00 | 0.07 | 19 | 1022.4 |
| 20260507194105 | 60 | 7 | 3.0 | 12.0 | 0.00 | 0.00 | 0.07 | 21 | 1022.7 |
| 20260507193103 | 60 | 65 | 2.0 | 8.0 | 0.00 | 0.00 | 0.07 | 20 | 1022.8 |
| 20260507191004 | 59 | 42 | 2.0 | 5.0 | 0.00 | 0.00 | 0.07 | 20 | 1023.1 |
| 20260507184904 | 59 | 40 | 2.0 | 6.0 | 0.00 | 0.00 | 0.07 | 21 | 1023.2 |
| 20260507183902 | 59 | 8 | 0.0 | 5.0 | 0.00 | 0.00 | 0.07 | 25 | 1023.2 |
| 20260507182903 | 58 | 78 | 1.0 | 3.0 | 0.00 | 0.00 | 0.07 | 26 | 1023.3 |
| 20260507181904 | 58 | 350 | 0.0 | 3.0 | 0.00 | 0.00 | 0.07 | 23 | 1023.5 |
| 20260507180902 | 58 | 268 | 0.0 | 2.0 | 0.00 | 0.00 | 0.07 | 27 | 1023.6 |
| 20260507175903 | 57 | 196 | 1.0 | 9.0 | 0.00 | 0.00 | 0.07 | 29 | 1023.7 |
| 20260507174903 | 57 | 360 | 0.0 | 0.0 | 0.00 | 0.00 | 0.07 | 27 | 1023.9 |
| 20260507173906 | 56 | 360 | 0.0 | 0.0 | 0.00 | 0.00 | 0.07 | 27 | 1024.0 |
| 20260507171802 | 54 | 306 | 0.0 | 7.0 | 0.00 | 0.00 | 0.07 | 30 | 1024.3 |
| 20260507170803 | 53 | 339 | 0.0 | 4.0 | 0.00 | 0.00 | 0.07 | 29 | 1024.5 |
| 20260507165803 | 52 | 353 | 1.0 | 3.0 | 0.00 | 0.00 | 0.07 | 29 | 1024.7 |
| 20260507164804 | 52 | 360 | 0.0 | 3.0 | 0.00 | 0.00 | 0.07 | 29 | 1024.8 |
| 20260507163803 | 51 | 18 | 0.0 | 3.0 | 0.00 | 0.00 | 0.07 | 29 | 1024.8 |
| 20260507150602 | 41 | 75 | 0.0 | 0.0 | 0.00 | 0.00 | 0.06 | 55 | 1025.6 |
| 20260507145603 | 41 | 51 | 0.0 | 5.0 | 0.00 | 0.00 | 0.06 | 57 | 1025.5 |
| 20260507144604 | 39 | 208 | 0.0 | 5.0 | 0.00 | 0.00 | 0.06 | 59 | 1025.6 |
| 20260507143602 | 37 | 213 | 2.0 | 4.0 | 0.00 | 0.00 | 0.06 | 63 | 1025.7 |
| 20260507142603 | 35 | 106 | 0.0 | 5.0 | 0.00 | 0.00 | 0.05 | 66 | 1025.9 |
| 20260507141603 | 34 | 232 | 2.0 | 2.0 | 0.00 | 0.00 | 0.05 | 66 | 1025.9 |
| 20260507140604 | 32 | 202 | 3.0 | 6.0 | 0.00 | 0.00 | 0.05 | 67 | 1025.9 |
| 20260507135603 | 30 | 192 | 1.0 | 5.0 | 0.00 | 0.00 | 0.02 | 67 | 1025.9 |
| 20260507134603 | 30 | 154 | 2.0 | 1.0 | 0.00 | 0.00 | 0.02 | 68 | 1026.0 |
| 20260507133604 | 30 | 151 | 2.0 | 9.0 | 0.00 | 0.00 | 0.02 | 68 | 1026.0 |
| 20260507132602 | 30 | 244 | 0.0 | 4.0 | 0.00 | 0.00 | 0.02 | 68 | 1026.0 |
| 20260507131603 | 30 | 100 | 1.0 | 9.0 | 0.00 | 0.00 | 0.02 | 68 | 1025.9 |
| 20260507130604 | 30 | 360 | 1.0 | 9.0 | 0.00 | 0.00 | 0.02 | 69 | 1025.9 |
| 20260507123403 | 30 | 143 | 2.0 | 6.0 | 0.00 | 0.00 | 0.02 | 69 | 1025.6 |
| 20260507120203 | 30 | 360 | 2.0 | 10.0 | 0.00 | 0.00 | 0.02 | 68 | 1025.3 |
| 20260507115204 | 30 | 333 | 1.0 | 8.0 | 0.00 | 0.00 | 0.02 | 66 | 1025.3 |
| 20260507114202 | 30 | 171 | 4.0 | 10.0 | 0.00 | 0.00 | 0.02 | 69 | 1025.2 |
| 20260507113203 | 30 | 192 | 1.0 | 9.0 | 0.00 | 0.00 | 0.01 | 69 | 1025.3 |
| 20260507112203 | 30 | 223 | 1.0 | 9.0 | 0.00 | 0.00 | 0.01 | 69 | 1025.3 |
| 20260507111204 | 30 | 212 | 4.0 | 10.0 | 0.00 | 0.00 | 0.01 | 69 | 1025.5 |
| 20260507110203 | 30 | 360 | 1.0 | 10.0 | 0.00 | 0.00 | 0.01 | 70 | 1025.5 |
| 20260507105203 | 30 | 151 | 2.0 | 10.0 | 0.00 | 0.00 | 0.01 | 70 | 1025.6 |
| 20260507104204 | 30 | 360 | 2.0 | 10.0 | 0.00 | 0.00 | 0.01 | 69 | 1025.6 |
| 20260507103202 | 30 | 192 | 3.0 | 9.0 | 0.00 | 0.00 | 0.01 | 70 | 1025.7 |
| 20260507102203 | 30 | 360 | 3.0 | 10.0 | 0.00 | 0.00 | 0.01 | 71 | 1026.0 |
| 20260507101203 | 31 | 240 | 0.0 | 10.0 | 0.00 | 0.00 | 0.01 | 71 | 1026.0 |
| 20260507100204 | 31 | 175 | 3.0 | 9.0 | 0.00 | 0.00 | 0.01 | 71 | 1026.0 |
| 20260507095202 | 31 | 154 | 1.0 | 8.0 | 0.00 | 0.00 | 0.01 | 70 | 1025.7 |
| 20260507094203 | 31 | 169 | 3.0 | 7.0 | 0.00 | 0.00 | 0.01 | 71 | 1025.7 |
| 20260507093204 | 31 | 219 | 2.0 | 10.0 | 0.00 | 0.00 | 0.01 | 71 | 1025.7 |
| 20260507092202 | 31 | 360 | 2.0 | 10.0 | 0.00 | 0.00 | 0.00 | 71 | 1025.6 |
| 20260507085103 | 32 | 270 | 2.0 | 10.0 | 0.00 | 0.00 | 0.00 | 71 | 1026.0 |
| 20260507084103 | 32 | 360 | 2.0 | 9.0 | 0.00 | 0.00 | 0.00 | 72 | 1026.0 |
| 20260507083104 | 32 | 151 | 4.0 | 7.0 | 0.00 | 0.00 | 0.00 | 72 | 1026.1 |
| 20260507082102 | 32 | 236 | 2.0 | 7.0 | 0.00 | 0.00 | 0.00 | 72 | 1026.3 |
| 20260507081103 | 32 | 349 | 3.0 | 4.0 | 0.00 | 0.00 | 0.00 | 75 | 1026.3 |
| 20260507080104 | 32 | 195 | 1.0 | 4.0 | 0.00 | 0.00 | 0.00 | 74 | 1026.3 |
| 20260507075102 | 32 | 360 | 2.0 | 10.0 | 0.00 | 0.00 | 0.00 | 74 | 1026.3 |
| 20260507074103 | 32 | 167 | 0.0 | 10.0 | 0.00 | 0.00 | 0.00 | 75 | 1026.3 |
| 20260507072003 | 32 | 56 | 2.0 | 9.0 | 0.00 | 0.00 | 0.00 | 77 | 1026.1 |
| 20260507064803 | 32 | 199 | 0.0 | 10.0 | 0.00 | 0.00 | 0.00 | 76 | 1026.5 |
| 20260507063804 | 32 | 360 | 1.0 | 9.0 | 0.00 | 0.00 | 0.00 | 77 | 1026.5 |
| 20260507062804 | 32 | 347 | 1.0 | 10.0 | 0.00 | 0.00 | 0.00 | 78 | 1026.7 |
| 20260507061803 | 33 | 209 | 0.0 | 4.0 | 0.00 | 0.00 | 1.25 | 78 | 1026.8 |
| 20260507060803 | 33 | 275 | 3.0 | 10.0 | 0.00 | 0.00 | 1.25 | 78 | 1026.9 |
| 20260507055804 | 33 | 193 | 3.0 | 10.0 | 0.00 | 0.00 | 1.25 | 79 | 1026.8 |
| 20260507053704 | 33 | 191 | 0.0 | 3.0 | 0.00 | 0.00 | 1.25 | 79 | 1026.7 |
| 20260507052705 | 33 | 360 | 0.0 | 0.0 | 0.00 | 0.00 | 1.25 | 79 | 1026.4 |
| 20260507051703 | 33 | 220 | 0.0 | 0.0 | 0.00 | 0.00 | 1.25 | 79 | 1026.3 |
| 20260507045604 | 34 | 220 | 1.0 | 3.0 | 0.00 | 0.00 | 1.25 | 79 | 1026.0 |
| 20260507044602 | 34 | 167 | 2.0 | 9.0 | 0.00 | 0.00 | 1.25 | 79 | 1026.0 |
| 20260507043603 | 34 | 169 | 1.0 | 2.0 | 0.00 | 0.00 | 1.25 | 79 | 1025.9 |
| 20260507042604 | 34 | 176 | 2.0 | 3.0 | 0.00 | 0.00 | 1.25 | 79 | 1025.6 |
| 20260507040504 | 34 | 217 | 2.0 | 10.0 | 0.00 | 0.00 | 1.25 | 78 | 1025.3 |
| 20260507035502 | 35 | 83 | 2.0 | 5.0 | 0.00 | 0.00 | 1.25 | 79 | 1025.3 |
| 20260507034503 | 35 | 143 | 0.0 | 10.0 | 0.00 | 0.00 | 1.25 | 80 | 1025.2 |
| 20260507033504 | 35 | 48 | 0.0 | 0.0 | 0.00 | 0.00 | 1.24 | 80 | 1025.1 |
| 20260507032502 | 36 | 48 | 0.0 | 10.0 | 0.00 | 0.00 | 1.24 | 79 | 1024.9 |
| 20260507031503 | 36 | 196 | 2.0 | 2.0 | 0.00 | 0.00 | 1.24 | 79 | 1024.7 |
| 20260507025403 | 36 | 164 | 0.0 | 4.0 | 0.00 | 0.00 | 1.24 | 79 | 1024.3 |
| 20260507024404 | 36 | 117 | 0.0 | 0.0 | 0.00 | 0.00 | 1.23 | 79 | 1024.0 |
| 20260507023402 | 37 | 174 | 1.0 | 3.0 | 0.00 | 0.00 | 1.23 | 78 | 1023.7 |
| 20260507022403 | 37 | 178 | 0.0 | 9.0 | 0.00 | 0.00 | 1.23 | 77 | 1023.5 |
| 20260507021404 | 37 | 158 | 3.0 | 10.0 | 0.00 | 0.00 | 1.23 | 77 | 1023.3 |
| 20260507020402 | 38 | 360 | 0.0 | 7.0 | 0.00 | 0.00 | 1.23 | 76 | 1023.2 |
| 20260507015403 | 38 | 360 | 1.0 | 0.0 | 0.00 | 0.00 | 1.23 | 76 | 1022.9 |
| 20260507014403 | 38 | 360 | 3.0 | 10.0 | 0.00 | 0.00 | 1.23 | 75 | 1022.8 |
| 20260507013404 | 39 | 174 | 1.0 | 10.0 | 0.00 | 0.00 | 1.22 | 73 | 1022.7 |
| 20260507012403 | 39 | 248 | 2.0 | 9.0 | 0.00 | 0.00 | 1.22 | 73 | 1022.5 |
| 20260507011403 | 40 | 140 | 0.0 | 9.0 | 0.00 | 0.00 | 1.22 | 72 | 1022.4 |
| 20260507010403 | 40 | 229 | 3.0 | 10.0 | 0.00 | 0.00 | 1.22 | 71 | 1022.1 |
| 20260507005404 | 41 | 112 | 0.0 | 3.0 | 0.00 | 0.00 | 1.22 | 71 | 1022.1 |
| 20260507004403 | 41 | 360 | 1.0 | 7.0 | 0.00 | 0.00 | 1.22 | 70 | 1021.9 |
| 20260507002306 | 42 | 244 | 0.0 | 3.0 | 0.00 | 0.00 | 1.22 | 67 | 1021.5 |
| 20260507001304 | 42 | 274 | 1.0 | 2.0 | 0.00 | 0.00 | 1.22 | 67 | 1021.5 |
| 20260507000303 | 42 | 328 | 0.0 | 3.0 | 0.00 | 0.00 | 1.22 | 67 | 1021.3 |
| 20260506235306 | 42 | 329 | 1.0 | 2.0 | 0.00 | 0.00 | 1.22 | 66 | 1021.2 |
| 20260506234304 | 42 | 227 | 0.0 | 0.0 | 0.00 | 0.00 | 1.22 | 60 | 1021.1 |
| 20260506233302 | 42 | 360 | 3.0 | 9.0 | 0.00 | 0.00 | 1.22 | 60 | 1021.1 |
| 20260506232306 | 42 | 328 | 2.0 | 3.0 | 0.00 | 0.00 | 1.22 | 65 | 1021.1 |
| 20260506231303 | 42 | 350 | 0.0 | 5.0 | 0.00 | 0.00 | 1.22 | 60 | 1021.1 |
| 20260506230304 | 42 | 339 | 0.0 | 4.0 | 0.00 | 0.00 | 1.22 | 61 | 1020.9 |
| 20260506224204 | 41 | 28 | 3.0 | 5.0 | 0.00 | 0.00 | 1.20 | 62 | 1020.5 |
| 20260506222103 | 40 | 7 | 1.0 | 4.0 | 0.00 | 0.00 | 1.20 | 65 | 1020.3 |
| 20260506221103 | 41 | 356 | 2.0 | 8.0 | 0.00 | 0.00 | 1.20 | 65 | 1020.3 |
| 20260506220103 | 41 | 61 | 4.0 | 7.0 | 0.00 | 0.00 | 1.20 | 64 | 1020.3 |
| 20260506215102 | 40 | 311 | 3.0 | 4.0 | 0.00 | 0.00 | 1.20 | 65 | 1020.1 |